x

Halibut Bank (46146) Wave Buoy

9:00 - Wed 23rd Apr 2014 All times are PDT. -7 hours from GMT.

  • Sig Wave height 2.0ft
  • Peak Period 4s
  • Wind
    18mph, 20mph gusts
  • Sea Temp 50°f
  • Luft Temp 47°f
  • Sea Pressure 1011mb
  • Halibut Bank
  • Halibut Bank

More Historic Weather Station data

Upgrade to MSW Pro to gain access to the past 30 days of data for over 8000 Wavebouys and Weather Stations around the globe.

Join Pro

Comparision Forecast

View Surf forecast
   
Mi 04/23 9:00 2ft 4s 18 20 mph 1011mb 50f 47f
8:00 2ft 3s 18 22 mph 1011.1mb 50f 47f
7:00 1.3ft 3s 16 18 mph 1010.7mb 50f 47f
6:00 1.3ft 3s 16 18 mph 1010.4mb 50f 47f
5:00 1.3ft 3s 16 18 mph 1010.3mb 50f 47f
4:00 1.6ft 3s 18 20 mph 1009.9mb 50f 47f
3:00 1.6ft 4s 18 22 mph 1009.6mb 50f 47f
2:00 1.3ft 3s 18 22 mph 1009.5mb 50f 47f
1:00 1ft 2s 18 20 mph 1009.6mb 50f 47f
12:00 0.7ft 3s 16 18 mph 1009.6mb 50f 47f
Di 04/22 11:00 0.7ft 3s 9 11 mph 1009.7mb 50f 47f
10:00 1.3ft 3s 11 13 mph 1010mb 50f 47f
9:00 1.3ft 3s 18 25 mph 1009.8mb 51f 48f
8:00 1.3ft 3s 16 18 mph 1009.4mb 51f 50f
7:00 1ft 3s 16 20 mph 1009.4mb 51f 51f
6:00 1ft 3s 9 11 mph 1009.8mb 51f 51f
5:00 1ft 3s 16 22 mph 1010.1mb 51f 51f
4:00 0.3ft 4s 9 11 mph 1010.2mb 52f 51f
3:00 0.3ft 4s 9 11 mph 1010.5mb 52f 50f
2:00 0.7ft 4s 4 7 mph 1010.4mb 53f 50f
1:00 1ft 3s 2
mph
1010.3mb 51f 50f
12:00 1ft 4s 4 7 mph 1010.2mb 50f 49f
11:00 1.3ft 3s 9 11 mph 1009.9mb 50f 48f
10:00 1.6ft 3s 11
mph
1009.4mb 50f 47f
9:00 1.6ft 4s 16 18 mph 1009.2mb 49f 47f
8:00 2ft 4s 16 18 mph 1009.3mb 49f 47f
7:00 2ft 4s 18 20 mph 1009.3mb 49f 47f
6:00 2.5ft 4s 18 20 mph 1009mb 49f 47f
5:00 2ft 4s 20 22 mph 1008.7mb 49f 47f
4:00 2ft 4s 20 25 mph 1008.7mb 49f 47f
3:00 1.3ft 3s 16 18 mph 1008.8mb 49f 47f
2:00 1.3ft 3s 18 20 mph 1008.9mb 49f 48f
1:00 1.3ft 3s 16 18 mph 1009.7mb 49f 48f
12:00 1.3ft 3s 16 18 mph 1009.8mb 49f 48f
Mo 04/21 11:00 1.3ft 3s 16 20 mph 1010.1mb 49f 48f
10:00 1.3ft 3s 16 18 mph 1010.5mb 49f 48f
9:00 1.3ft 3s 16 18 mph 1010.7mb 49f 48f
8:00 1ft 3s 16 18 mph 1011.2mb 49f 48f
7:00 1ft 3s 16 18 mph 1012.3mb 49f 48f
6:00 1.3ft 4s 16 18 mph 1012.8mb 49f 48f
5:00 1ft 3s 16 18 mph 1013.2mb 49f 49f
4:00 0.7ft 3s 13 16 mph 1013.7mb 49f 49f
3:00 0.7ft 4s 11 13 mph 1014.5mb 49f 49f
2:00 0.3ft 3s 9
mph
1015.2mb 49f 49f
1:00 0.3ft 6s 7 9 mph 1015.8mb 49f 48f
12:00 0.3ft 2s 11 13 mph 1016.3mb 48f 48f
11:00 0.7ft 2s 11 13 mph 1016.4mb 48f 47f
10:00 0.7ft 3s 11 13 mph 1016.7mb 48f 47f
9:00 1ft 3s 11
mph
1017mb 48f 47f
8:00 0.7ft 3s 13 16 mph 1017.3mb 47f 47f
7:00 0.7ft 3s 11 13 mph 1017.7mb 48f 47f
6:00 0.7ft 3s 7 9 mph 1017.8mb 48f 48f
5:00 0.7ft 2s 7 9 mph 1018.2mb 49f 48f
4:00 0.7ft 2s 7 9 mph 1018.6mb 49f 49f
3:00 1ft 2s 7 9 mph 1019mb 49f 49f
2:00 1ft 3s 2 4 mph 1019.5mb 49f 49f
1:00 1ft 3s 4 9 mph 1019.8mb 49f 50f
12:00 1ft 3s 11 16 mph 1019.7mb 49f 52f
So 04/20 11:00 1ft 2s 13 16 mph 1019.9mb 49f 51f
10:00 0.7ft 2s 11 13 mph 1020.5mb 49f 52f
9:00 0.7ft 2s 13
mph
1021.2mb 49f 51f
8:00 0.7ft 2s 9 11 mph 1021.7mb 50f 51f
7:00 0.7ft 2s 11 13 mph 1022mb 50f 51f
6:00 1ft 2s 11 13 mph 1022.4mb 50f 51f
5:00 1ft 3s 13 18 mph 1023.2mb 50f 52f
4:00 1.3ft 3s 13
mph
1023.4mb 50f 51f
1:00 1ft 3s 16 18 mph 1024.7mb 49f 49f
12:00 1.3ft 3s 13 16 mph 1025mb 49f 48f
11:00 1.3ft 3s 18 20 mph 1025.1mb 49f 48f
10:00 1.6ft 3s 18 22 mph 1025.1mb 49f 48f
9:00 1.3ft 3s 16 18 mph 1024.7mb 49f 48f
8:00 1ft 2s 11 16 mph 1024.4mb 49f 48f
7:00 0.7ft 3s 13 16 mph 1023.9mb 49f 49f
6:00 1ft 3s 11 18 mph 1023.5mb 49f 49f
5:00 1ft 3s 11 13 mph 1023.2mb 49f 48f
4:00 1ft 3s 11 16 mph 1022.9mb 49f 49f
3:00 0.7ft 3s 7 9 mph 1022.2mb 49f 49f
2:00 1ft 3s 9 11 mph 1021.4mb 49f 49f
1:00 1ft 3s 9 13 mph 1020.3mb 49f 50f
12:00 1ft 2s 13 16 mph 1018.9mb 49f 51f
Sa 04/19 11:00 1ft 4s 7 9 mph 1017.6mb 49f 51f
10:00 1ft 4s 11 13 mph 1016.3mb 49f 50f
9:00 1.3ft 4s 11 13 mph 1015.1mb 49f 51f
8:00 1.3ft 4s 13 18 mph 1013.6mb 49f 50f
7:00 1.6ft 3s 11 13 mph 1012.4mb 49f 50f
6:00 2.5ft 3s 16 18 mph 1011.8mb 49f 50f